Date String (YYYY-MM-DD hh:mm:ss) UTC,Instrument flags,absolute air pressure of the measurement (hPa),sample flow rate (lpm),inlet stack bypass flow (lpm),air temperature of the measurement (°C),ambient temperature measured by the external sensor (°C),aerosol sample conditioner tube jacket temperature (°C),OPC LED temperature (°C),internal box temperature (°C),relative humidity of the measurement (%),span deviation,mass concentration of particles derived from Lorenz-Mie calculation of OPC scattering (μg/m³),mass concentration of particles derived from Lorenz-Mie calculation of OPC scattering (μg/m³),mass concentration of particles derived from Lorenz-Mie calculation of OPC scattering (μg/m³)
DateTimeUTC,F1_M11,P_M11,Q1_M11,Q2_M11,T1_M11,T2_M11,T3_M11,T4_M11,T5_M11,U1_M11,ZSPAN_M11,X0_M11,X2_M11,X1_M11
2023-10-17 10:00:00,SystemResetWarning,0831.2,5.00,000.00,028.6,027.0,000.0,037.0,030.2,13.4,0000.0,0003.77,0001.67,0001.37
2023-10-17 10:01:00,SystemResetWarning,0831.2,5.00,000.00,028.6,027.0,000.0,037.0,030.2,13.3,0000.0,0003.26,0001.54,0001.31
2023-10-17 10:02:00,SystemResetWarning,0831.2,5.00,000.00,028.6,027.0,000.0,037.0,030.2,13.1,0000.0,0003.12,0001.45,0001.24
2023-10-17 10:03:00,SystemResetWarning,0831.2,5.00,000.00,028.5,027.0,000.0,037.0,030.1,13.2,0000.0,0003.09,0001.42,0001.20
2023-10-17 10:04:00,SystemResetWarning,0831.2,5.00,000.00,028.6,027.0,000.0,037.0,030.1,13.4,0000.0,0003.13,0001.39,0001.18
2023-10-17 10:05:00,SystemResetWarning,0831.1,5.00,000.00,028.5,027.0,000.0,037.0,030.1,13.4,0000.0,0003.42,0001.41,0001.17
2023-10-17 10:06:00,SystemResetWarning,0831.1,5.00,000.00,028.5,027.0,000.0,037.0,030.1,13.4,0000.0,0003.11,0001.37,0001.14
2023-10-17 10:07:00,SystemResetWarning,0831.1,5.00,000.00,028.5,026.9,000.0,037.0,030.1,13.5,0000.0,0002.42,0001.30,0001.11
2023-10-17 10:08:00,SystemResetWarning,0831.1,5.00,000.00,028.5,026.9,000.0,037.0,030.1,13.5,0000.0,0002.27,0001.29,0001.09
2023-10-17 10:09:00,SystemResetWarning,0831.1,5.00,000.00,028.5,026.9,000.0,037.0,030.1,13.4,0000.0,0002.26,0001.32,0001.11
2023-10-17 10:10:00,SystemResetWarning,0831.1,5.00,000.00,028.5,026.9,000.0,037.0,030.1,13.2,0000.0,0002.31,0001.36,0001.13
2023-10-17 10:11:00,SystemResetWarning,0831.2,5.00,000.00,028.5,027.0,000.0,037.0,030.1,13.0,0000.0,0002.29,0001.40,0001.17
2023-10-17 10:12:00,SystemResetWarning,0831.1,5.00,000.00,028.5,027.0,000.0,037.0,030.1,13.0,0000.0,0002.49,0001.47,0001.20
2023-10-17 10:13:00,SystemResetWarning,0831.1,5.00,000.00,028.5,027.0,000.0,037.0,030.1,13.0,0000.0,0002.59,0001.51,0001.23
2023-10-17 10:14:00,SystemResetWarning,0831.1,5.00,000.00,028.5,027.0,000.0,037.0,030.1,13.1,0000.0,0002.69,0001.55,0001.25
2023-10-17 10:15:00,SystemResetWarning,0831.1,5.01,000.00,028.5,027.0,000.0,037.0,030.1,13.1,0000.0,0002.69,0001.54,0001.24
2023-10-17 10:16:00,SystemResetWarning,0831.1,5.00,000.00,028.5,026.9,000.0,037.0,030.1,13.3,0000.0,0002.43,0001.47,0001.20
2023-10-17 10:17:00,SystemResetWarning,0831.0,5.00,000.00,028.5,026.9,000.0,037.0,030.1,13.1,0000.0,0002.15,0001.43,0001.18
2023-10-17 10:18:00,SystemResetWarning,0831.0,5.00,000.00,028.5,026.9,000.0,037.0,030.1,13.3,0000.0,0002.15,0001.43,0001.17
2023-10-17 10:19:00,SystemResetWarning,0831.0,5.00,000.00,028.5,026.9,000.0,037.0,030.1,13.5,0000.0,0002.13,0001.42,0001.17
2023-10-17 10:20:00,SystemResetWarning,0831.0,5.00,000.00,028.5,026.9,000.0,037.0,030.1,13.6,0000.0,0002.04,0001.37,0001.13
2023-10-17 10:21:00,SystemResetWarning,0830.9,5.00,000.00,028.5,026.9,000.0,037.0,030.1,13.6,0000.0,0001.94,0001.31,0001.09
2023-10-17 10:22:00,SystemResetWarning,0830.9,5.00,000.00,028.5,026.9,000.0,037.0,030.1,13.7,0000.0,0001.90,0001.29,0001.06
2023-10-17 10:23:00,SystemResetWarning,0831.0,5.00,000.00,028.5,026.9,000.0,037.0,030.1,13.5,0000.0,0001.73,0001.21,0001.02
2023-10-17 10:24:00,SystemResetWarning,0830.9,5.00,000.00,028.5,027.0,000.0,037.0,030.1,13.3,0000.0,0001.62,0001.18,0001.00
2023-10-17 10:25:00,SystemResetWarning,0830.9,5.00,000.00,028.5,027.0,000.0,037.0,030.1,13.3,0000.0,0001.57,0001.16,0000.99
2023-10-17 10:26:00,SystemResetWarning,0830.9,5.00,000.00,028.5,027.0,000.0,037.0,030.1,13.2,0000.0,0001.47,0001.14,0000.98
2023-10-17 10:27:00,SystemResetWarning,0830.9,5.00,000.00,028.5,027.0,000.0,037.0,030.1,13.2,0000.0,0001.55,0001.16,0000.99
2023-10-17 10:28:00,SystemResetWarning,0831.0,4.99,000.00,028.5,027.0,000.0,037.0,030.1,13.2,0000.0,0001.80,0001.21,0001.00
2023-10-17 10:29:00,SystemResetWarning,0831.0,5.00,000.00,028.5,027.0,000.0,037.0,030.1,13.2,0000.0,0002.13,0001.28,0001.02
2023-10-17 10:30:00,SystemResetWarning,0831.0,4.99,000.00,028.5,027.0,000.0,037.0,030.1,13.3,0000.0,0002.12,0001.27,0001.01
2023-10-17 10:31:00,SystemResetWarning,0830.9,5.00,000.00,028.5,027.0,000.0,037.0,030.1,13.3,0000.0,0002.14,0001.27,0001.03
2023-10-17 10:32:00,SystemResetWarning,0831.0,5.01,000.00,028.5,027.0,000.0,037.0,030.1,13.4,0000.0,0002.19,0001.29,0001.04
2023-10-17 10:33:00,SystemResetWarning,0830.9,5.00,000.00,028.5,027.0,000.0,037.0,030.1,13.4,0000.0,0002.29,0001.34,0001.06
2023-10-17 10:34:00,SystemResetWarning,0830.9,5.00,000.00,028.5,027.0,000.0,037.0,030.1,13.3,0000.0,0002.49,0001.42,0001.09
2023-10-17 10:35:00,SystemResetWarning,0830.9,5.00,000.00,028.5,027.0,000.0,037.0,030.1,13.2,0000.0,0002.58,0001.47,0001.12
2023-10-17 10:36:00,SystemResetWarning,0830.9,5.00,000.00,028.5,027.0,000.0,037.0,030.1,13.3,0000.0,0002.68,0001.52,0001.15
2023-10-17 10:37:00,SystemResetWarning,0830.9,5.00,000.00,028.5,027.0,000.0,037.0,030.1,13.4,0000.0,0002.81,0001.55,0001.18
2023-10-17 10:38:00,SystemResetWarning,0830.9,5.00,000.00,028.5,027.0,000.0,037.0,030.1,13.5,0000.0,0003.02,0001.56,0001.19
2023-10-17 10:39:00,SystemResetWarning,0830.8,4.99,000.00,028.5,027.0,000.0,036.9,030.1,13.6,0000.0,0003.62,0001.56,0001.18
2023-10-17 10:40:00,SystemResetWarning,0830.8,5.00,000.00,028.5,027.0,000.0,036.9,030.1,13.6,0000.0,0003.37,0001.54,0001.19
2023-10-17 10:41:00,SystemResetWarning,0830.8,5.01,000.00,028.5,027.0,000.0,037.0,030.1,13.4,0000.0,0003.43,0001.58,0001.23
2023-10-17 10:42:00,SystemResetWarning,0830.7,5.00,000.00,028.5,027.0,000.0,037.0,030.1,13.3,0000.0,0003.57,0001.66,0001.27
2023-10-17 10:43:00,SystemResetWarning,0830.7,5.00,000.00,028.5,027.0,000.0,036.9,030.1,13.2,0000.0,0003.59,0001.68,0001.30
2023-10-17 10:44:00,SystemResetWarning,0830.7,5.00,000.00,028.5,027.0,000.0,037.0,030.1,13.2,0000.0,0003.54,0001.68,0001.32
2023-10-17 10:45:00,SystemResetWarning,0830.7,5.00,000.00,028.5,027.0,000.0,037.0,030.1,13.1,0000.0,0003.41,0001.63,0001.34
2023-10-17 10:46:00,SystemResetWarning,0830.7,5.00,000.00,028.5,027.0,000.0,037.0,030.1,13.2,0000.0,0003.45,0001.66,0001.35
2023-10-17 10:47:00,SystemResetWarning,0830.7,5.00,000.00,028.5,027.0,000.0,036.9,030.1,13.2,0000.0,0004.18,0001.68,0001.35
2023-10-17 10:48:00,SystemResetWarning,0830.8,5.00,000.00,028.5,027.0,000.0,036.9,030.1,13.4,0000.0,0004.94,0001.68,0001.32
2023-10-17 10:49:00,SystemResetWarning,0830.8,5.01,000.00,028.5,027.0,000.0,036.9,030.1,13.3,0000.0,0004.78,0001.65,0001.30
2023-10-17 10:50:00,SystemResetWarning,0830.8,5.01,000.00,028.5,027.0,000.0,036.9,030.1,13.2,0000.0,0003.85,0001.61,0001.29
2023-10-17 10:51:00,SystemResetWarning,0830.8,5.00,000.00,028.5,027.0,000.0,037.0,030.1,13.0,0000.0,0003.73,0001.55,0001.27
2023-10-17 10:52:00,SystemResetWarning,0830.8,5.00,000.00,028.5,027.0,000.0,037.0,030.1,13.3,0000.0,0003.70,0001.53,0001.24
2023-10-17 10:53:00,SystemResetWarning,0830.8,5.00,000.00,028.5,027.0,000.0,036.9,030.1,13.2,0000.0,0003.70,0001.50,0001.22
2023-10-17 10:54:00,SystemResetWarning,0830.8,4.99,000.00,028.5,027.0,000.0,037.0,030.1,13.2,0000.0,0003.70,0001.47,0001.20
2023-10-17 10:55:00,SystemResetWarning,0830.7,5.00,000.00,028.5,027.0,000.0,037.0,030.1,13.1,0000.0,0003.79,0001.50,0001.20
2023-10-17 10:56:00,SystemResetWarning,0830.7,5.00,000.00,028.5,027.0,000.0,036.9,030.1,13.2,0000.0,0003.94,0001.54,0001.22
2023-10-17 10:57:00,SystemResetWarning,0830.7,5.01,000.00,028.5,027.0,000.0,037.0,030.1,13.1,0000.0,0004.11,0001.57,0001.25
2023-10-17 10:58:00,SystemResetWarning,0830.7,5.00,000.00,028.5,027.0,000.0,037.0,030.1,13.2,0000.0,0004.25,0001.63,0001.28
2023-10-17 10:59:00,SystemResetWarning,0830.7,5.00,000.00,028.5,027.0,000.0,037.0,030.1,13.2,0000.0,0003.45,0001.71,0001.34
